Weather History for O'Neill, NE

Change the Weather History Date:

Saturday, November 17, 2012

  Actual Average Record
Temperature  
Mean Temperature 48 °F -  
Max Temperature 58 °F 48 °F 71 °F (1975)
Min Temperature 37 °F 24 °F -9 °F (1959)
Degree Days  
Heating Degree Days 18    
Moisture  
Dew Point 33 °F    
Average Humidity 61    
Maximum Humidity 79    
Minimum Humidity 39    
Precipitation  
Precipitation 0.00 in - - ()
Sea Level Pressure  
Sea Level Pressure 30.07 in    
Wind  
Wind Speed 13 mph (South)    
Max Wind Speed 21 mph    
Max Gust Speed 25 mph    
Visibility 10 miles    
Events      
Averages and records for this station are not official NWS values.
T = Trace of Precipitation, MM = Missing Value Source: NWS Daily Summary

Daily Weather History Graph

Daily Weather History Graph

Search for Another Location

Airport:

Trip Planner

Search our weather history database for the weather conditions in past years. The results will help you decide how hot, cold, wet, or windy it might be!

Date:

Astronomy

Nov. 17, 2012 Rise Set
Actual Time 7:28 AM CST 5:10 PM CST
Civil Twilight 6:58 AM CST 5:40 PM CST
Nautical Twilight 6:24 AM CST 6:14 PM CST
Astronomical Twilight 5:50 AM CST 6:48 PM CST
Moon 11:14 AM CST (11/17) 9:22 PM CST (11/17)
Length of Visible Light 10h 42m
Length of Day
9h 41m
Waxing Crescent, 20% of the Moon is Illuminated
Nov 17
Waxing Crescent
Nov 20
First Quarter
Nov 28
Full
Dec 6
Last Quarter
Dec 13
New

Hourly Weather History & Observations

Time (CST) Temp. Windchill Dew Point Humidity Pressure Visibility Wind Dir Wind Speed Gust Speed Precip Events Conditions
12:15 AM 43.5 °F 37.9 °F 33.6 °F 68% 30.15 in 10.0 mi South 10.4 mph - N/A   Clear
12:35 AM 43.2 °F 37.0 °F 33.8 °F 70% 30.15 in 10.0 mi South 11.5 mph 18.4 mph N/A   Clear
12:55 AM 42.8 °F 36.6 °F 33.8 °F 70% 30.14 in 10.0 mi South 11.5 mph - N/A   Clear
1:15 AM 42.6 °F 35.6 °F 33.8 °F 71% 30.14 in 10.0 mi South 13.8 mph - N/A   Clear
1:35 AM 42.4 °F 35.3 °F 33.8 °F 71% 30.14 in 10.0 mi South 13.8 mph - N/A   Clear
1:55 AM 42.1 °F 34.9 °F 33.8 °F 72% 30.13 in 10.0 mi South 13.8 mph - N/A   Clear
2:15 AM 41.7 °F 34.8 °F 33.3 °F 72% 30.13 in 10.0 mi South 12.7 mph - N/A   Clear
2:35 AM 41.7 °F 34.8 °F 33.3 °F 72% 30.12 in 10.0 mi South 12.7 mph - N/A   Clear
2:55 AM 41.9 °F 34.6 °F 32.9 °F 70% 30.12 in 10.0 mi South 13.8 mph 18.4 mph N/A   Clear
3:15 AM 41.4 °F 34.7 °F 32.9 °F 72% 30.11 in 10.0 mi South 11.5 mph - N/A   Clear
3:35 AM 42.8 °F 36.6 °F 33.8 °F 70% 30.10 in 10.0 mi South 11.5 mph - N/A   Clear
3:55 AM 43.0 °F 36.4 °F 33.3 °F 69% 30.09 in 10.0 mi South 12.7 mph 18.4 mph N/A   Clear
4:15 AM 43.7 °F 36.3 °F 33.3 °F 67% 30.10 in 10.0 mi South 16.1 mph 19.6 mph N/A   Clear
4:35 AM 43.7 °F 36.3 °F 33.1 °F 66% 30.10 in 10.0 mi South 16.1 mph 20.7 mph N/A   Clear
4:55 AM 43.5 °F 36.7 °F 32.9 °F 66% 30.09 in 10.0 mi South 13.8 mph 20.7 mph N/A   Clear
5:15 AM 42.8 °F 36.2 °F 32.9 °F 68% 30.09 in 10.0 mi South 12.7 mph - N/A   Clear
5:35 AM 42.4 °F 36.1 °F 32.9 °F 69% 30.10 in 10.0 mi South 11.5 mph - N/A   Clear
5:55 AM 42.3 °F 35.9 °F 32.5 °F 68% 30.09 in 10.0 mi South 11.5 mph - N/A   Clear
6:15 AM 42.6 °F 35.9 °F 32.5 °F 68% 30.09 in 10.0 mi South 12.7 mph - N/A   Clear
6:35 AM 42.1 °F 35.2 °F 32.4 °F 68% 30.09 in 10.0 mi South 12.7 mph - N/A   Clear
6:55 AM 41.9 °F 34.6 °F 32.2 °F 68% 30.08 in 10.0 mi South 13.8 mph 20.7 mph N/A   Clear
7:15 AM 41.2 °F 33.7 °F 32.0 °F 70% 30.08 in 10.0 mi South 13.8 mph 18.4 mph N/A   Clear
7:35 AM 41.0 °F 33.1 °F 32.0 °F 70% 30.08 in 10.0 mi South 15.0 mph 20.7 mph N/A   Clear
7:55 AM 42.1 °F 34.2 °F 32.0 °F 67% 30.08 in 10.0 mi South 16.1 mph 21.9 mph N/A   Clear
8:15 AM 42.3 °F 34.1 °F 32.0 °F 67% 30.08 in 10.0 mi South 17.3 mph 21.9 mph N/A   Clear
8:35 AM 42.3 °F 34.1 °F 32.0 °F 67% 30.09 in 10.0 mi South 17.3 mph - N/A   Clear
8:55 AM 44.1 °F 36.5 °F 32.2 °F 63% 30.10 in 10.0 mi South 17.3 mph 23.0 mph N/A   Clear
9:15 AM 45.0 °F 37.6 °F 32.2 °F 61% 30.10 in 10.0 mi South 17.3 mph 24.2 mph N/A   Clear
9:35 AM 44.1 °F 36.8 °F 32.2 °F 63% 30.10 in 10.0 mi South 16.1 mph 23.0 mph N/A   Clear
9:55 AM 46.6 °F - 32.5 °F 58% 30.10 in 10.0 mi South 19.6 mph - N/A   Clear
10:15 AM 47.5 °F - 32.9 °F 57% 30.09 in 10.0 mi South 19.6 mph 25.3 mph N/A   Clear
10:35 AM 49.3 °F - 33.6 °F 55% 30.09 in 10.0 mi South 19.6 mph 25.3 mph N/A   Clear
11:55 AM 53.2 °F - 34.5 °F 49% 30.06 in 10.0 mi SSW 17.3 mph 23.0 mph N/A   Clear
12:15 PM 54.3 °F - 34.7 °F 48% 30.05 in 10.0 mi SSW 17.3 mph 23.0 mph N/A   Clear
12:35 PM 54.9 °F - 34.5 °F 46% 30.04 in 10.0 mi South 16.1 mph - N/A   Clear
12:55 PM 55.6 °F - 34.5 °F 45% 30.03 in 10.0 mi South 17.3 mph - N/A   Clear
1:15 PM 57.0 °F - 34.7 °F 43% 30.02 in 10.0 mi South 18.4 mph 23.0 mph N/A   Clear
1:35 PM 57.4 °F - 34.3 °F 42% 30.01 in 10.0 mi South 20.7 mph 25.3 mph N/A   Clear
1:55 PM 57.7 °F - 33.8 °F 41% 30.01 in 10.0 mi South 19.6 mph - N/A   Clear
2:15 PM 58.1 °F - 33.4 °F 39% 30.02 in 10.0 mi South 17.3 mph - N/A   Clear
2:35 PM 58.3 °F - 33.8 °F 40% 30.02 in 10.0 mi South 13.8 mph - N/A   Clear
2:55 PM 58.3 °F - 33.4 °F 39% 30.02 in 10.0 mi SSW 17.3 mph 21.9 mph N/A   Clear
3:15 PM 58.6 °F - 33.6 °F 39% 30.02 in 10.0 mi SSW 18.4 mph 23.0 mph N/A   Clear
3:35 PM 57.7 °F - 33.8 °F 41% 30.03 in 10.0 mi South 18.4 mph 23.0 mph N/A   Clear
3:55 PM 56.3 °F - 33.8 °F 43% 30.03 in 10.0 mi South 17.3 mph 21.9 mph N/A   Clear
4:15 PM 55.6 °F - 34.2 °F 44% 30.03 in 10.0 mi South 10.4 mph - N/A   Clear
4:35 PM 55.8 °F - 34.7 °F 45% 30.04 in 10.0 mi South 10.4 mph - N/A   Clear
4:55 PM 55.4 °F - 34.5 °F 45% 30.04 in 10.0 mi South 10.4 mph 17.3 mph N/A   Clear
5:15 PM 53.4 °F - 34.3 °F 48% 30.03 in 10.0 mi South 9.2 mph - N/A   Clear
5:35 PM 51.6 °F - 34.0 °F 51% 30.03 in 10.0 mi South 10.4 mph - N/A   Clear
5:55 PM 50.7 °F - 33.8 °F 52% 30.04 in 10.0 mi SSE 9.2 mph - N/A   Clear
6:15 PM 48.9 °F - 33.6 °F 56% 30.04 in 10.0 mi SSE 8.1 mph - N/A   Clear
6:35 PM 47.5 °F - 33.4 °F 58% 30.04 in 10.0 mi South 8.1 mph - N/A   Clear
6:55 PM 46.4 °F 42.4 °F 33.3 °F 60% 30.04 in 10.0 mi South 8.1 mph - N/A   Clear
7:15 PM 45.9 °F 41.7 °F 33.4 °F 62% 30.04 in 10.0 mi SSW 8.1 mph - N/A   Clear
7:35 PM 45.5 °F 41.3 °F 33.1 °F 62% 30.04 in 10.0 mi SSW 8.1 mph - N/A   Clear
7:55 PM 43.5 °F 40.1 °F 32.5 °F 65% 30.04 in 10.0 mi SSW 5.8 mph - N/A   Clear
8:15 PM 44.6 °F 40.7 °F 33.1 °F 64% 30.04 in 10.0 mi SSW 6.9 mph - N/A   Clear
8:35 PM 42.8 °F 40.1 °F 32.4 °F 67% 30.03 in 10.0 mi SSW 4.6 mph - N/A   Clear
8:55 PM 44.2 °F 41.0 °F 32.7 °F 64% 30.03 in 10.0 mi SSW 5.8 mph - N/A   Clear
9:15 PM 42.4 °F 38.1 °F 32.9 °F 69% 30.04 in 10.0 mi SSE 6.9 mph - N/A   Clear
9:35 PM 42.3 °F 37.3 °F 32.4 °F 68% 30.04 in 10.0 mi SE 8.1 mph - N/A   Clear
9:55 PM 41.2 °F 35.5 °F 32.0 °F 70% 30.04 in 10.0 mi SSE 9.2 mph - N/A   Clear
10:15 PM 41.0 °F 35.2 °F 32.2 °F 71% 30.04 in 10.0 mi South 9.2 mph - N/A   Clear
10:35 PM 40.1 °F 34.7 °F 32.0 °F 73% 30.04 in 10.0 mi SSE 8.1 mph - N/A   Clear
10:55 PM 39.2 °F 35.0 °F 32.0 °F 75% 30.04 in 10.0 mi South 5.8 mph - N/A   Clear
11:15 PM 39.0 °F 34.8 °F 32.0 °F 76% 30.03 in 10.0 mi South 5.8 mph - N/A   Clear
11:35 PM 37.9 °F 32.7 °F 32.0 °F 79% 30.03 in 10.0 mi SSE 6.9 mph - N/A   Clear
11:55 PM 38.5 °F 33.4 °F 32.0 °F 78% 30.03 in 10.0 mi South 6.9 mph - N/A   Clear